Lid_Strength_Index
8 12 13 12 10 10 11 12 13 11 9 9 10 10 9 9 9 9 10 9 8 7 6 6 4 4 4 3 2 2 3 3 3 3 4 4 4 3 3 3 3 3 3 2
11 13 10 9 9 10 11 12 13 10 9 10 11 11 9 7 7 8 8 8 8 7 7 6 6 5 5 3 3 2 2 3 3 2 2 3 3 3 2 3 2 2 3 3
12 10 8 9 11 12 12 13 13 12 10 10 12 13 11 9 7 7 7 7 7 7 6 6 7 7 6 5 4 3 2 2 2 2 2 3 3 4 4 3 3 2 3 3
11 8 10 11 12 11 14 10 11 12 13 17 12 18 14 11 10 9 8 7 7 7 6 5 5 6 6 5 5 2 3 2 2 2 2 3 3 3 3 3 2 2 2 3
12 11 11 12 11 10 12 9 11 12 14 16 16 17 16 12 13 11 9 9 8 6 6 6 6 5 5 4 4 3 3 3 2 2 2 2 3 2 2 2 3 3 2 2
10 7 8 10 8 9 8 11 11 11 13 18 15 15 18 14 12 11 10 8 8 7 7 7 7 6 6 5 6 6 5 4 4 3 2 2 2 2 2 2 3 3 2 2
12 12 9 8 11 9 10 13 19 20 20 19 15 16 15 13 12 11 10 10 9 8 8 9 8 7 6 7 7 7 7 7 6 6 5 4 1 2 2 2 2 2 3 3
16 17 11 9 10 12 12 13 18 22 21 20 15 18 16 11 10 10 10 9 8 9 9 8 8 9 8 8 7 7 7 7 7 7 7 7 6 4 1 1 1 1 1 2
15 15 11 9 9 9 13 15 11 16 22 20 18 16 13 11 11 11 9 9 9 9 9 8 8 8 8 8 7 7 7 7 7 7 7 7 7 7 6 4 1 1 1 1
12 16 12 10 9 9 11 9 16 15 21 24 19 19 17 14 12 10 11 10 9 8 8 8 8 8 8 8 8 7 7 7 6 6 6 6 6 6 6 6 5 5 2 0
10 12 14 11 13 13 12 14 13 13 15 19 21 19 13 12 12 11 11 9 8 8 7 9 10 9 9 9 8 7 7 7 6 6 6 6 6 6 6 6 5 5 4 3
10 13 16 14 12 11 10 12 13 16 17 15 16 17 12 12 11 10 10 9 8 7 9 10 9 9 9 8 8 7 7 7 6 6 6 6 6 6 6 6 6 5 4 3
10 14 17 16 13 11 13 12 11 12 13 16 18 16 9 10 11 11 9 8 8 8 10 10 10 9 9 8 8 7 7 7 6 6 6 6 6 6 6 6 5 5 5 4
8 13 14 17 15 13 15 13 12 12 16 15 15 13 11 11 11 11 9 8 9 9 9 10 10 10 9 8 8 7 7 7 6 6 7 7 7 6 6 6 6 6 5 5
10 14 13 12 14 12 13 13 13 14 13 16 13 13 11 9 10 10 9 10 10 9 9 10 10 10 10 9 8 7 7 7 7 7 8 8 7 7 7 7 7 6 6 6
9 14 13 16 14 14 14 12 12 12 12 12 12 12 8 8 9 10 10 10 9 9 8 9 9 10 10 9 8 8 8 8 7 8 8 7 7 7 7 8 8 8 8 7
12 13 15 17 14 16 16 13 12 12 11 11 14 11 8 8 9 9 10 9 8 9 8 9 9 10 10 9 8 8 8 7 8 8 8 8 8 9 9 9 9 10 9 8
12 13 13 16 15 21 13 10 10 11 10 9 9 9 8 8 7 8 8 8 8 9 9 9 9 10 9 8 7 7 8 8 9 10 10 10 10 11 11 11 11 10 10 10
9 12 15 17 17 15 14 13 13 14 13 10 9 8 7 7 9 9 8 8 8 8 8 8 8 9 9 8 8 8 9 10 10 11 11 11 11 11 11 11 11 10 10 10
10 10 14 16 19 20 14 13 11 11 15 10 10 10 10 9 12 10 8 8 8 8 8 8 9 9 9 9 8 9 10 10 10 10 11 11 11 11 11 11 11 10 11 10
14 14 16 17 18 19 14 14 11 18 16 12 10 9 9 11 9 8 8 9 8 9 9 9 9 9 9 10 10 10 10 10 10 10 10 11 11 11 11 11 11 11 11 10
15 15 16 17 18 19 13 13 14 12 13 13 12 12 11 11 10 10 9 9 9 9 9 10 11 11 11 10 11 11 11 10 10 11 10 11 11 11 11 11 11 11 12 11
15 13 15 13 14 12 13 12 11 11 11 11 10 11 10 10 11 10 10 10 10 10 11 11 12 12 11 11 11 11 11 10 10 10 10 10 11 11 11 12 12 11 11 11
13 11 13 13 12 12 12 12 12 11 12 12 12 12 11 12 12 13 13 13 12 12 12 12 12 12 12 12 11 11 11 11 11 11 10 10 11 11 11 11 11 11 11 11
13 11 13 14 13 12 15 16 14 15 16 16 15 15 15 14 15 15 15 14 14 13 13 13 13 13 13 13 13 14 12 12 12 12 11 11 11 11 11 11 12 11 11 10
14 14 13 14 14 13 17 18 16 17 18 17 17 17 16 16 16 16 16 16 15 16 16 17 16 16 17 16 16 15 15 14 14 14 13 12 12 11 12 12 12 10 10 9